When you browse on this site, cookies collect data to enhance your experience and personalize the content and advertising you see.
Visit our Privacy Policy to learn more. By continuing to use the site, you agree to this use of cookies and data.

Hourly Weather Kostygovo

Today, 15 July, Wednesday

Time Temperature Precipitation Wind Pressure Humidity
00:00 +13°C° 2.7 mm 6 mps 741 mmHg 95%
01:00 +11°C° 2.7 mm 6 mps 741 mmHg 96%
02:00 +11°C° 2.7 mm 6 mps 740 mmHg 97%
03:00 +11°C° 3.6 mm 6 mps 740 mmHg 97%
04:00 +11°C° 3.6 mm 6 mps 740 mmHg 97%
05:00 +11°C° 3.6 mm 6 mps 740 mmHg 97%
06:00 +11°C° 0.9 mm 6 mps 740 mmHg 97%
07:00 +11°C° 0.9 mm 6 mps 740 mmHg 97%
08:00 +11°C° 0.9 mm 6 mps 740 mmHg 96%
09:00 +11°C° 0.1 mm 6 mps 740 mmHg 96%
10:00 +11°C° 0.1 mm 6 mps 740 mmHg 95%
11:00 +13°C° 0.1 mm 6 mps 740 mmHg 94%
12:00 +13°C° 0 mm 6 mps 740 mmHg 91%
13:00 +14°C° 0 mm 5 mps 740 mmHg 87%
14:00 +15°C° 0 mm 5 mps 740 mmHg 84%
15:00 +15°C° 0 mm 5 mps 740 mmHg 85%
16:00 +15°C° 0 mm 5 mps 740 mmHg 86%
17:00 +15°C° 0 mm 5 mps 740 mmHg 87%
18:00 +14°C° 0.2 mm 5 mps 739 mmHg 89%
19:00 +14°C° 0.2 mm 4 mps 739 mmHg 91%
20:00 +14°C° 0.2 mm 4 mps 739 mmHg 93%
21:00 +13°C° 1.1 mm 4 mps 739 mmHg 94%
22:00 +13°C° 1.1 mm 4 mps 739 mmHg 96%
23:00 +13°C° 1.1 mm 4 mps 739 mmHg 97%

Tomorrow, 16 July, Thursday

Time Temperature Precipitation Wind Pressure Humidity
00:00 +13°C° 0.8 mm 4 mps 739 mmHg 97%
01:00 +13°C° 0.8 mm 4 mps 738 mmHg 98%
02:00 +13°C° 0.8 mm 4 mps 738 mmHg 98%
03:00 +13°C° 0.6 mm 3 mps 738 mmHg 98%
04:00 +13°C° 0.6 mm 3 mps 738 mmHg 98%
05:00 +14°C° 0.6 mm 2 mps 738 mmHg 99%
06:00 +14°C° 1 mm 2 mps 738 mmHg 98%
07:00 +14°C° 1 mm 2 mps 738 mmHg 98%
08:00 +14°C° 1 mm 2 mps 739 mmHg 98%
09:00 +15°C° 0.5 mm 2 mps 739 mmHg 97%
10:00 +14°C° 0.5 mm 3 mps 739 mmHg 96%
11:00 +16°C° 0.5 mm 3 mps 739 mmHg 95%
12:00 +16°C° 0.6 mm 3 mps 739 mmHg 95%
13:00 +16°C° 0.6 mm 3 mps 740 mmHg 95%
14:00 +16°C° 0.6 mm 3 mps 740 mmHg 94%
15:00 +14°C° 0.3 mm 3 mps 740 mmHg 94%
16:00 +14°C° 0.3 mm 3 mps 740 mmHg 94%
17:00 +14°C° 0.3 mm 3 mps 740 mmHg 94%
18:00 +14°C° 0.1 mm 3 mps 741 mmHg 95%
19:00 +14°C° 0.1 mm 3 mps 741 mmHg 95%
20:00 +13°C° 0.1 mm 3 mps 741 mmHg 96%
21:00 +13°C° 0 mm 3 mps 741 mmHg 96%
22:00 +13°C° 0 mm 3 mps 741 mmHg 96%
23:00 +13°C° 0 mm 3 mps 741 mmHg 96%

Day after tomorrow, 17 July, Friday

Time Temperature Precipitation Wind Pressure Humidity
00:00 +13°C° 0 mm 3 mps 741 mmHg 97%
01:00 +13°C° 0 mm 3 mps 742 mmHg 97%
02:00 +13°C° 0 mm 3 mps 742 mmHg 97%
03:00 +13°C° 0.1 mm 3 mps 742 mmHg 97%
04:00 +13°C° 0.1 mm 3 mps 742 mmHg 97%
05:00 +13°C° 0.1 mm 3 mps 742 mmHg 97%
06:00 +13°C° 0 mm 3 mps 742 mmHg 96%
07:00 +13°C° 0 mm 3 mps 743 mmHg 95%
08:00 +14°C° 0 mm 3 mps 743 mmHg 94%
09:00 +16°C° 0.1 mm 3 mps 743 mmHg 89%
10:00 +17°C° 0.1 mm 3 mps 744 mmHg 85%
11:00 +18°C° 0.1 mm 3 mps 744 mmHg 81%
12:00 +18°C° 0.3 mm 3 mps 744 mmHg 80%
13:00 +18°C° 0.3 mm 3 mps 744 mmHg 80%
14:00 +18°C° 0.3 mm 3 mps 744 mmHg 79%
15:00 +18°C° 0.1 mm 3 mps 744 mmHg 77%
16:00 +18°C° 0.1 mm 3 mps 745 mmHg 76%
17:00 +19°C° 0.1 mm 3 mps 745 mmHg 74%
18:00 +17°C° 0.1 mm 2 mps 745 mmHg 80%
19:00 +16°C° 0.1 mm 2 mps 745 mmHg 87%
20:00 +15°C° 0.1 mm 1 mps 745 mmHg 94%
21:00 +14°C° 0 mm 1 mps 746 mmHg 95%
22:00 +13°C° 0 mm 1 mps 746 mmHg 96%
23:00 +12°C° 0 mm 1 mps 746 mmHg 97%

18 July, Saturday

Time Temperature Precipitation Wind Pressure Humidity
00:00 +12°C° 0 mm 1 mps 746 mmHg 98%
01:00 +12°C° 0 mm 1 mps 746 mmHg 98%
02:00 +11°C° 0 mm 1 mps 747 mmHg 98%
03:00 +12°C° 0 mm 2 mps 747 mmHg 97%
04:00 +12°C° 0 mm 2 mps 747 mmHg 97%
05:00 +13°C° 0 mm 2 mps 747 mmHg 96%
06:00 +14°C° 0 mm 2 mps 747 mmHg 91%
07:00 +15°C° 0 mm 2 mps 747 mmHg 85%
08:00 +17°C° 0 mm 2 mps 748 mmHg 80%
09:00 +18°C° 0 mm 2 mps 748 mmHg 71%
10:00 +20°C° 0 mm 2 mps 748 mmHg 62%
11:00 +21°C° 0 mm 3 mps 748 mmHg 54%
12:00 +22°C° 0 mm 3 mps 748 mmHg 51%
13:00 +22°C° 0 mm 3 mps 748 mmHg 48%
14:00 +24°C° 0 mm 3 mps 748 mmHg 45%
15:00 +24°C° 0 mm 3 mps 748 mmHg 49%
16:00 +23°C° 0 mm 2 mps 748 mmHg 53%
17:00 +23°C° 0 mm 2 mps 748 mmHg 58%
18:00 +20°C° 0 mm 2 mps 748 mmHg 65%
19:00 +19°C° 0 mm 1 mps 748 mmHg 72%
20:00 +18°C° 0 mm 1 mps 748 mmHg 79%
21:00 +16°C° 0 mm 1 mps 748 mmHg 83%
22:00 +15°C° 0 mm 1 mps 748 mmHg 86%
23:00 +14°C° 0 mm 1 mps 748 mmHg 90%

19 July, Sunday

Time Temperature Precipitation Wind Pressure Humidity
00:00 +14°C° 0 mm 1 mps 749 mmHg 92%
01:00 +14°C° 0 mm 1 mps 749 mmHg 93%
02:00 +13°C° 0 mm 1 mps 749 mmHg 95%
03:00 +14°C° 0 mm 1 mps 749 mmHg 94%
04:00 +14°C° 0 mm 1 mps 749 mmHg 92%
05:00 +14°C° 0 mm 1 mps 749 mmHg 90%
06:00 +16°C° 0 mm 1 mps 749 mmHg 82%
07:00 +19°C° 0 mm 1 mps 749 mmHg 74%
08:00 +20°C° 0 mm 2 mps 749 mmHg 65%
09:00 +23°C° 0 mm 2 mps 749 mmHg 60%
10:00 +24°C° 0 mm 2 mps 749 mmHg 55%
11:00 +25°C° 0 mm 2 mps 749 mmHg 49%
12:00 +25°C° 0 mm 2 mps 749 mmHg 48%
13:00 +26°C° 0 mm 2 mps 748 mmHg 47%
14:00 +26°C° 0 mm 2 mps 748 mmHg 45%
15:00 +26°C° 0 mm 2 mps 748 mmHg 49%
16:00 +25°C° 0 mm 2 mps 748 mmHg 52%
17:00 +25°C° 0 mm 1 mps 748 mmHg 56%
18:00 +23°C° 0 mm 1 mps 748 mmHg 62%
19:00 +20°C° 0 mm 1 mps 748 mmHg 69%
20:00 +18°C° 0 mm 1 mps 748 mmHg 76%
21:00 +16°C° 0 mm 1 mps 748 mmHg 76%
22:00 +16°C° 0 mm 1 mps 748 mmHg 77%
23:00 +15°C° 0 mm 1 mps 748 mmHg 78%

20 July, Monday

Time Temperature Precipitation Wind Pressure Humidity
00:00 +14°C° 0 mm 1 mps 748 mmHg 79%
01:00 +14°C° 0 mm 1 mps 748 mmHg 81%
02:00 +14°C° 0 mm 1 mps 748 mmHg 83%
03:00 +14°C° 0 mm 1 mps 748 mmHg 84%
04:00 +14°C° 0 mm 1 mps 748 mmHg 86%
05:00 +15°C° 0 mm 1 mps 747 mmHg 87%
06:00 +18°C° 0 mm 1 mps 747 mmHg 80%
07:00 +19°C° 0 mm 2 mps 747 mmHg 73%
08:00 +20°C° 0 mm 2 mps 747 mmHg 67%
09:00 +21°C° 0 mm 2 mps 747 mmHg 62%
10:00 +23°C° 0 mm 2 mps 747 mmHg 57%
11:00 +24°C° 0 mm 2 mps 747 mmHg 53%
12:00 +25°C° 0 mm 2 mps 747 mmHg 52%
13:00 +25°C° 0 mm 3 mps 747 mmHg 51%
14:00 +25°C° 0 mm 3 mps 746 mmHg 50%
15:00 +24°C° 0 mm 3 mps 746 mmHg 51%
16:00 +24°C° 0 mm 3 mps 746 mmHg 53%
17:00 +22°C° 0 mm 3 mps 746 mmHg 55%
18:00 +20°C° 0 mm 2 mps 746 mmHg 61%
19:00 +18°C° 0 mm 2 mps 746 mmHg 67%
20:00 +16°C° 0 mm 1 mps 746 mmHg 74%
21:00 +15°C° 0 mm 1 mps 746 mmHg 75%
22:00 +14°C° 0 mm 1 mps 746 mmHg 76%
23:00 +13°C° 0 mm 1 mps 746 mmHg 77%
Show more